Time,TemperatureF,DewpointF,PressureIn,WindDirection,WindDirectionDegrees,WindSpeedMPH,WindSpeedGustMPH,Humidity,HourlyPrecipIn,Conditions,Clouds,dailyrainin,SoftwareType,DateUTC
2013-06-14 00:03:00,71.2,55.7,29.27,SSW,194,0.0,0.0,58,0.00,,---,0.00,VWS V12.08,2013-06-14 05:03:00,
2013-06-14 00:08:00,71.1,56.1,29.27,East,89,0.0,0.0,59,0.00,,---,0.00,VWS V12.08,2013-06-14 05:08:00,
2013-06-14 00:13:00,71.0,56.0,29.28,ENE,75,0.0,0.0,59,0.00,,---,0.00,VWS V12.08,2013-06-14 05:13:00,
2013-06-14 00:18:00,71.0,56.0,29.28,SE,124,0.0,0.0,59,0.00,,---,0.00,VWS V12.08,2013-06-14 05:18:00,
2013-06-14 00:24:00,70.9,55.9,29.28,SE,124,0.0,0.0,59,0.00,,---,0.00,VWS V12.08,2013-06-14 05:24:00,
2013-06-14 00:30:00,70.8,55.8,29.28,SSE,151,0.0,0.0,59,0.00,,---,0.00,VWS V12.08,2013-06-14 05:30:00,
2013-06-14 00:35:00,70.6,55.6,29.29,ESE,119,0.0,0.0,59,0.00,,---,0.00,VWS V12.08,2013-06-14 05:35:00,
2013-06-14 00:40:00,70.5,56.0,29.28,ESE,119,0.0,0.0,60,0.00,,---,0.00,VWS V12.08,2013-06-14 05:40:00,
2013-06-14 00:45:00,70.4,55.9,29.28,South,174,0.0,0.0,60,0.00,,---,0.00,VWS V12.08,2013-06-14 05:45:00,
2013-06-14 00:50:00,70.2,55.7,29.28,SW,224,0.0,0.0,60,0.00,,---,0.00,VWS V12.08,2013-06-14 05:50:00,
2013-06-14 00:55:00,70.1,56.0,29.28,East,80,0.0,0.0,61,0.00,,---,0.00,VWS V12.08,2013-06-14 05:55:00,
2013-06-14 01:00:00,69.9,55.8,29.28,SE,132,0.0,0.0,61,0.00,,---,0.00,VWS V12.08,2013-06-14 06:00:00,
2013-06-14 01:05:00,69.7,56.1,29.29,SE,145,0.0,0.0,62,0.00,,---,0.00,VWS V12.08,2013-06-14 06:05:00,
2013-06-14 01:10:00,69.5,55.9,29.29,ESE,103,0.0,0.0,62,0.00,,---,0.00,VWS V12.08,2013-06-14 06:10:00,
2013-06-14 01:15:00,69.4,55.8,29.29,SE,134,0.0,0.0,62,0.00,,---,0.00,VWS V12.08,2013-06-14 06:15:00,
2013-06-14 01:21:00,69.3,56.2,29.29,West,262,0.0,0.0,63,0.00,,---,0.00,VWS V12.08,2013-06-14 06:21:00,
2013-06-14 01:26:00,69.2,56.1,29.28,NW,306,0.0,0.0,63,0.00,,---,0.00,VWS V12.08,2013-06-14 06:26:00,
2013-06-14 01:31:00,69.0,55.9,29.29,South,176,0.0,0.0,63,0.00,,---,0.00,VWS V12.08,2013-06-14 06:31:00,
2013-06-14 01:36:00,69.0,55.9,29.29,East,100,0.0,0.0,63,0.00,,---,0.00,VWS V12.08,2013-06-14 06:36:00,
2013-06-14 01:41:00,68.8,55.7,29.28,East,88,0.0,0.0,63,0.00,,---,0.00,VWS V12.08,2013-06-14 06:41:00,
2013-06-14 01:46:00,68.8,55.7,29.28,East,85,0.0,0.0,63,0.00,,---,0.00,VWS V12.08,2013-06-14 06:46:00,
2013-06-14 01:51:00,68.7,55.6,29.29,East,84,0.0,0.0,63,0.00,,---,0.00,VWS V12.08,2013-06-14 06:51:00,
2013-06-14 01:56:00,68.6,56.0,29.30,East,92,0.0,0.0,64,0.00,,---,0.00,VWS V12.08,2013-06-14 06:56:00,
2013-06-14 02:01:00,68.5,55.9,29.30,East,88,0.0,0.0,64,0.00,,---,0.00,VWS V12.08,2013-06-14 07:01:00,
2013-06-14 02:06:00,68.5,55.4,29.30,East,88,0.0,0.0,63,0.00,,---,0.00,VWS V12.08,2013-06-14 07:06:00,
2013-06-14 02:11:00,68.4,55.8,29.30,East,89,0.0,0.0,64,0.00,,---,0.00,VWS V12.08,2013-06-14 07:11:00,
2013-06-14 02:16:00,68.3,55.7,29.30,East,84,0.0,0.0,64,0.00,,---,0.00,VWS V12.08,2013-06-14 07:16:00,
2013-06-14 02:21:00,67.9,55.7,29.30,East,83,0.0,0.0,65,0.00,,---,0.00,VWS V12.08,2013-06-14 07:21:00,
2013-06-14 02:26:00,67.5,55.3,29.30,East,83,0.0,0.0,65,0.00,,---,0.00,VWS V12.08,2013-06-14 07:26:00,
2013-06-14 02:31:00,67.1,55.8,29.30,East,83,0.0,0.0,67,0.00,,---,0.00,VWS V12.08,2013-06-14 07:31:00,
2013-06-14 02:36:00,66.7,55.4,29.30,East,83,0.0,0.0,67,0.00,,---,0.00,VWS V12.08,2013-06-14 07:36:00,
2013-06-14 02:41:00,66.6,55.7,29.30,East,83,0.0,0.0,68,0.00,,---,0.00,VWS V12.08,2013-06-14 07:41:00,
2013-06-14 02:46:00,66.5,55.6,29.30,East,83,0.0,0.0,68,0.00,,---,0.00,VWS V12.08,2013-06-14 07:46:00,
2013-06-14 02:51:00,66.3,55.4,29.30,East,83,0.0,0.0,68,0.00,,---,0.00,VWS V12.08,2013-06-14 07:51:00,
2013-06-14 02:56:00,66.3,55.4,29.29,East,83,0.0,0.0,68,0.00,,---,0.00,VWS V12.08,2013-06-14 07:56:00,
2013-06-14 03:01:00,66.6,55.7,29.29,East,84,0.0,0.0,68,0.00,,---,0.00,VWS V12.08,2013-06-14 08:01:00,
2013-06-14 03:06:00,66.8,55.5,29.29,East,83,0.0,0.0,67,0.00,,---,0.00,VWS V12.08,2013-06-14 08:06:00,
2013-06-14 03:11:00,66.8,55.5,29.29,East,94,0.0,0.0,67,0.00,,---,0.00,VWS V12.08,2013-06-14 08:11:00,
2013-06-14 03:16:00,66.6,55.3,29.29,East,91,0.0,0.0,67,0.00,,---,0.00,VWS V12.08,2013-06-14 08:16:00,
2013-06-14 03:21:00,66.5,55.6,29.29,East,92,0.0,0.0,68,0.00,,---,0.00,VWS V12.08,2013-06-14 08:21:00,
2013-06-14 03:26:00,66.4,55.5,29.29,East,88,0.0,0.0,68,0.00,,---,0.00,VWS V12.08,2013-06-14 08:26:00,
2013-06-14 03:31:00,66.3,55.8,29.29,East,87,0.0,0.0,69,0.00,,---,0.00,VWS V12.08,2013-06-14 08:31:00,
2013-06-14 03:37:00,66.2,55.7,29.29,East,83,0.0,0.0,69,0.00,,---,0.00,VWS V12.08,2013-06-14 08:37:00,
2013-06-14 03:42:00,66.3,55.8,29.28,East,85,0.0,0.0,69,0.00,,---,0.00,VWS V12.08,2013-06-14 08:42:00,
2013-06-14 03:47:00,66.3,55.8,29.28,East,100,0.0,0.0,69,0.00,,---,0.00,VWS V12.08,2013-06-14 08:47:00,
2013-06-14 03:52:00,66.3,56.2,29.28,East,81,0.0,0.0,70,0.00,,---,0.00,VWS V12.08,2013-06-14 08:52:00,
2013-06-14 03:57:00,66.2,56.1,29.28,East,82,0.0,0.0,70,0.00,,---,0.00,VWS V12.08,2013-06-14 08:57:00,
2013-06-14 04:02:00,66.1,56.0,29.29,East,92,0.0,0.0,70,0.00,,---,0.00,VWS V12.08,2013-06-14 09:02:00,
2013-06-14 04:07:00,66.1,56.0,29.28,East,90,0.0,0.0,70,0.00,,---,0.00,VWS V12.08,2013-06-14 09:07:00,
2013-06-14 04:13:00,66.1,55.7,29.28,East,89,0.0,0.0,69,0.00,,---,0.00,VWS V12.08,2013-06-14 09:13:00,
2013-06-14 04:18:00,66.0,55.5,29.28,SE,128,0.0,0.0,69,0.00,,---,0.00,VWS V12.08,2013-06-14 09:18:00,
2013-06-14 04:23:00,66.0,55.5,29.28,East,81,0.0,0.0,69,0.00,,---,0.00,VWS V12.08,2013-06-14 09:23:00,
2013-06-14 04:28:00,65.9,55.5,29.29,East,81,0.0,0.0,69,0.00,,---,0.00,VWS V12.08,2013-06-14 09:28:00,
2013-06-14 04:33:00,65.9,55.5,29.29,East,81,0.0,0.0,69,0.00,,---,0.00,VWS V12.08,2013-06-14 09:33:00,
2013-06-14 04:38:00,65.8,55.4,29.30,ESE,122,0.0,0.0,69,0.00,,---,0.00,VWS V12.08,2013-06-14 09:38:00,
2013-06-14 04:43:00,65.7,55.7,29.29,East,81,0.0,0.0,70,0.00,,---,0.00,VWS V12.08,2013-06-14 09:43:00,
2013-06-14 04:49:00,65.5,55.5,29.30,SSE,161,0.0,0.0,70,0.00,,---,0.00,VWS V12.08,2013-06-14 09:49:00,
2013-06-14 04:54:00,65.4,55.4,29.30,NW,316,0.0,0.0,70,0.00,,---,0.00,VWS V12.08,2013-06-14 09:54:00,
2013-06-14 04:59:00,65.3,55.7,29.30,ESE,112,0.0,0.0,71,0.00,,---,0.00,VWS V12.08,2013-06-14 09:59:00,
2013-06-14 05:04:00,65.2,55.6,29.30,East,93,0.0,0.0,71,0.00,,---,0.00,VWS V12.08,2013-06-14 10:04:00,
2013-06-14 05:09:00,65.0,55.4,29.30,ENE,76,0.0,0.0,71,0.00,,---,0.00,VWS V12.08,2013-06-14 10:09:00,
2013-06-14 05:15:00,65.1,55.5,29.30,ESE,112,0.0,0.0,71,0.00,,---,0.00,VWS V12.08,2013-06-14 10:15:00,
2013-06-14 05:20:00,65.0,55.4,29.30,SE,136,0.0,0.0,71,0.00,,---,0.00,VWS V12.08,2013-06-14 10:20:00,
2013-06-14 05:25:00,64.9,55.7,29.30,ESE,104,0.0,0.0,72,0.00,,---,0.00,VWS V12.08,2013-06-14 10:25:00,
2013-06-14 05:30:00,64.9,55.7,29.29,ESE,114,0.0,0.0,72,0.00,,---,0.00,VWS V12.08,2013-06-14 10:30:00,
2013-06-14 05:35:00,64.9,55.7,29.29,SE,141,0.0,0.0,72,0.00,,---,0.00,VWS V12.08,2013-06-14 10:35:00,
2013-06-14 05:40:00,64.8,55.6,29.30,SSE,158,0.0,0.0,72,0.00,,---,0.00,VWS V12.08,2013-06-14 10:40:00,
2013-06-14 05:45:00,64.8,55.6,29.29,SE,145,0.0,0.0,72,0.00,,---,0.00,VWS V12.08,2013-06-14 10:45:00,
2013-06-14 05:51:00,64.7,55.5,29.29,ENE,74,0.0,0.0,72,0.00,,---,0.00,VWS V12.08,2013-06-14 10:51:00,
2013-06-14 05:56:00,64.6,55.4,29.30,ENE,70,0.0,0.0,72,0.00,,---,0.00,VWS V12.08,2013-06-14 10:56:00,
2013-06-14 06:02:00,64.4,55.6,29.30,East,91,0.0,0.0,73,0.00,,---,0.00,VWS V12.08,2013-06-14 11:02:00,
2013-06-14 06:08:00,64.2,55.4,29.30,ESE,122,0.0,0.0,73,0.00,,---,0.00,VWS V12.08,2013-06-14 11:08:00,
2013-06-14 06:13:00,64.1,55.3,29.31,ESE,102,0.0,0.0,73,0.00,,---,0.00,VWS V12.08,2013-06-14 11:13:00,
2013-06-14 06:19:00,64.0,55.2,29.30,East,97,0.0,0.0,73,0.00,,---,0.00,VWS V12.08,2013-06-14 11:19:00,
2013-06-14 06:24:00,64.0,55.2,29.30,NE,47,0.0,0.0,73,0.00,,---,0.00,VWS V12.08,2013-06-14 11:24:00,
2013-06-14 06:29:00,64.0,55.2,29.30,East,84,0.0,0.0,73,0.00,,---,0.00,VWS V12.08,2013-06-14 11:29:00,
2013-06-14 06:34:00,64.1,55.3,29.30,ESE,103,0.0,0.0,73,0.00,,---,0.00,VWS V12.08,2013-06-14 11:34:00,
2013-06-14 06:39:00,64.1,55.3,29.30,SE,130,0.0,0.0,73,0.00,,---,0.00,VWS V12.08,2013-06-14 11:39:00,
2013-06-14 06:44:00,64.2,55.4,29.31,SSE,152,0.0,0.0,73,0.00,,---,0.00,VWS V12.08,2013-06-14 11:44:00,
2013-06-14 06:49:00,64.3,55.5,29.32,East,84,0.0,0.0,73,0.00,,---,0.00,VWS V12.08,2013-06-14 11:49:00,
2013-06-14 06:54:00,64.6,55.4,29.33,ESE,102,0.0,0.0,72,0.00,,---,0.00,VWS V12.08,2013-06-14 11:54:00,
2013-06-14 06:59:00,64.9,55.3,29.33,East,88,0.0,0.0,71,0.00,,---,0.00,VWS V12.08,2013-06-14 11:59:00,
2013-06-14 07:04:00,65.3,55.7,29.32,East,94,0.0,0.0,71,0.00,,---,0.00,VWS V12.08,2013-06-14 12:04:00,
2013-06-14 07:09:00,65.8,55.8,29.32,SSE,164,0.0,0.0,70,0.00,,---,0.00,VWS V12.08,2013-06-14 12:09:00,
2013-06-14 07:14:00,66.0,56.0,29.32,East,84,0.0,0.0,70,0.00,,---,0.00,VWS V12.08,2013-06-14 12:14:00,
2013-06-14 07:19:00,66.0,56.0,29.32,SE,124,0.0,0.0,70,0.00,,---,0.00,VWS V12.08,2013-06-14 12:19:00,
2013-06-14 07:24:00,65.9,55.5,29.33,East,88,0.0,0.0,69,0.00,,---,0.00,VWS V12.08,2013-06-14 12:24:00,
2013-06-14 07:29:00,65.8,55.8,29.33,ESE,120,0.0,0.0,70,0.00,,---,0.00,VWS V12.08,2013-06-14 12:29:00,
2013-06-14 07:34:00,65.9,56.2,29.33,East,101,0.0,0.0,71,0.00,,---,0.00,VWS V12.08,2013-06-14 12:34:00,
2013-06-14 07:39:00,65.9,56.2,29.33,ESE,115,0.0,0.0,71,0.00,,---,0.00,VWS V12.08,2013-06-14 12:39:00,
2013-06-14 07:44:00,65.8,56.2,29.33,East,92,0.0,0.0,71,0.00,,---,0.00,VWS V12.08,2013-06-14 12:44:00,
2013-06-14 07:50:00,65.6,56.3,29.33,ESE,119,0.0,0.0,72,0.00,,---,0.00,VWS V12.08,2013-06-14 12:50:00,
2013-06-14 07:55:00,65.5,56.2,29.32,East,94,0.0,0.0,72,0.00,,---,0.00,VWS V12.08,2013-06-14 12:55:00,
2013-06-14 08:00:00,65.5,56.6,29.32,East,96,0.0,0.0,73,0.00,,---,0.00,VWS V12.08,2013-06-14 13:00:00,
2013-06-14 08:05:00,65.7,56.8,29.31,ESE,107,0.0,0.0,73,0.00,,---,0.00,VWS V12.08,2013-06-14 13:05:00,
2013-06-14 08:10:00,65.8,56.9,29.31,East,85,0.0,0.0,73,0.00,,---,0.00,VWS V12.08,2013-06-14 13:10:00,
2013-06-14 08:15:00,65.9,57.0,29.31,ESE,112,0.0,0.0,73,0.00,,---,0.00,VWS V12.08,2013-06-14 13:15:00,
2013-06-14 08:20:00,66.0,57.1,29.30,SE,137,0.0,0.0,73,0.00,,---,0.00,VWS V12.08,2013-06-14 13:20:00,
2013-06-14 08:25:00,66.1,57.2,29.30,East,98,0.0,0.0,73,0.00,,---,0.00,VWS V12.08,2013-06-14 13:25:00,
2013-06-14 08:30:00,66.3,57.4,29.31,ESE,112,0.0,0.0,73,0.00,,---,0.00,VWS V12.08,2013-06-14 13:30:00,
2013-06-14 08:35:00,66.8,57.9,29.31,ESE,103,0.0,1.0,73,0.00,,---,0.00,VWS V12.08,2013-06-14 13:35:00,
2013-06-14 08:40:00,67.4,58.1,29.31,East,94,0.0,1.0,72,0.00,,---,0.00,VWS V12.08,2013-06-14 13:40:00,
2013-06-14 08:45:00,68.0,58.3,29.30,East,94,0.0,1.0,71,0.00,,---,0.00,VWS V12.08,2013-06-14 13:45:00,
2013-06-14 08:50:00,68.1,58.0,29.30,ESE,105,1.0,1.0,70,0.00,,---,0.00,VWS V12.08,2013-06-14 13:50:00,
2013-06-14 08:55:00,67.8,57.7,29.29,ESE,114,0.0,1.0,70,0.00,,---,0.00,VWS V12.08,2013-06-14 13:55:00,
2013-06-14 09:00:00,67.9,57.8,29.29,SE,129,0.0,0.0,70,0.00,,---,0.00,VWS V12.08,2013-06-14 14:00:00,
2013-06-14 09:05:00,68.4,58.2,29.28,ESE,109,0.0,0.0,70,0.00,,---,0.00,VWS V12.08,2013-06-14 14:05:00,
2013-06-14 09:10:00,68.8,58.2,29.28,SE,127,0.0,1.0,69,0.00,,---,0.00,VWS V12.08,2013-06-14 14:10:00,
2013-06-14 09:16:00,69.3,58.7,29.28,SE,126,0.0,1.0,69,0.00,,---,0.00,VWS V12.08,2013-06-14 14:16:00,
2013-06-14 09:21:00,69.4,58.4,29.28,SE,130,0.0,1.0,68,0.00,,---,0.00,VWS V12.08,2013-06-14 14:21:00,
2013-06-14 09:26:00,69.9,58.9,29.28,SE,128,0.0,1.0,68,0.00,,---,0.00,VWS V12.08,2013-06-14 14:26:00,
2013-06-14 09:31:00,70.0,58.1,29.28,SE,140,0.0,0.0,66,0.00,,---,0.00,VWS V12.08,2013-06-14 14:31:00,
2013-06-14 09:36:00,70.7,58.8,29.28,SE,133,0.0,1.0,66,0.00,,---,0.00,VWS V12.08,2013-06-14 14:36:00,
2013-06-14 09:41:00,70.6,58.7,29.29,SE,138,0.0,2.0,66,0.00,,---,0.00,VWS V12.08,2013-06-14 14:41:00,
2013-06-14 09:46:00,70.1,58.2,29.29,SE,136,0.0,2.0,66,0.00,,---,0.00,VWS V12.08,2013-06-14 14:46:00,
2013-06-14 09:51:00,70.3,58.8,29.29,SE,139,0.0,2.0,67,0.00,,---,0.00,VWS V12.08,2013-06-14 14:51:00,
2013-06-14 09:56:00,70.5,58.6,29.29,SSE,150,0.0,2.0,66,0.00,,---,0.00,VWS V12.08,2013-06-14 14:56:00,
2013-06-14 10:01:00,71.1,59.2,29.30,SE,141,0.0,0.0,66,0.00,,---,0.00,VWS V12.08,2013-06-14 15:01:00,
2013-06-14 10:06:00,71.0,59.1,29.31,SSE,150,0.0,0.0,66,0.00,,---,0.00,VWS V12.08,2013-06-14 15:06:00,
2013-06-14 10:12:00,71.2,59.3,29.31,East,82,0.0,0.0,66,0.00,,---,0.00,VWS V12.08,2013-06-14 15:12:00,
2013-06-14 10:18:00,71.5,59.1,29.31,SE,143,0.0,0.0,65,0.00,,---,0.00,VWS V12.08,2013-06-14 15:18:00,
2013-06-14 10:23:00,71.4,58.6,29.31,South,173,0.0,0.0,64,0.00,,---,0.00,VWS V12.08,2013-06-14 15:23:00,
2013-06-14 10:28:00,71.4,59.0,29.31,SE,137,0.0,0.0,65,0.00,,---,0.00,VWS V12.08,2013-06-14 15:28:00,
2013-06-14 10:33:00,71.3,58.9,29.31,South,173,0.0,1.0,65,0.00,,---,0.00,VWS V12.08,2013-06-14 15:33:00,
2013-06-14 10:38:00,71.3,59.4,29.31,SSE,165,0.0,1.0,66,0.00,,---,0.00,VWS V12.08,2013-06-14 15:38:00,
2013-06-14 10:43:00,71.0,59.1,29.31,SSW,193,0.0,1.0,66,0.00,,---,0.00,VWS V12.08,2013-06-14 15:43:00,
2013-06-14 10:48:00,70.8,58.9,29.31,SE,139,0.0,1.0,66,0.00,,---,0.00,VWS V12.08,2013-06-14 15:48:00,
2013-06-14 10:53:00,70.9,59.0,29.31,SSE,151,0.0,1.0,66,0.00,,---,0.00,VWS V12.08,2013-06-14 15:53:00,
2013-06-14 10:58:00,71.0,59.1,29.32,SE,132,0.0,1.0,66,0.00,,---,0.00,VWS V12.08,2013-06-14 15:58:00,
2013-06-14 11:03:00,71.0,59.1,29.33,South,185,0.0,0.0,66,0.00,,---,0.00,VWS V12.08,2013-06-14 16:03:00,
2013-06-14 11:09:00,71.0,59.1,29.34,SE,127,0.0,0.0,66,0.00,,---,0.00,VWS V12.08,2013-06-14 16:09:00,
2013-06-14 11:14:00,71.0,58.7,29.35,ESE,109,0.0,0.0,65,0.00,,---,0.00,VWS V12.08,2013-06-14 16:14:00,
2013-06-14 11:19:00,71.2,58.8,29.36,ESE,119,0.0,0.0,65,0.00,,---,0.00,VWS V12.08,2013-06-14 16:19:00,
2013-06-14 11:25:00,71.2,59.7,29.37,East,95,0.0,0.0,67,0.00,,---,0.00,VWS V12.08,2013-06-14 16:25:00,
2013-06-14 11:30:00,70.7,59.6,29.37,East,84,0.0,0.0,68,0.00,,---,0.00,VWS V12.08,2013-06-14 16:30:00,
2013-06-14 11:35:00,70.1,59.9,29.35,East,96,0.0,0.0,70,0.00,,---,0.00,VWS V12.08,2013-06-14 16:35:00,
2013-06-14 11:40:00,69.8,60.0,29.34,South,187,0.0,0.0,71,0.00,,---,0.00,VWS V12.08,2013-06-14 16:40:00,
2013-06-14 11:45:00,69.5,60.1,29.33,SW,221,0.0,0.0,72,0.00,,---,0.00,VWS V12.08,2013-06-14 16:45:00,
2013-06-14 11:50:00,69.3,59.9,29.32,SSE,156,0.0,0.0,72,0.00,,---,0.00,VWS V12.08,2013-06-14 16:50:00,
2013-06-14 11:55:00,69.3,59.9,29.31,South,169,0.0,1.0,72,0.00,,---,0.00,VWS V12.08,2013-06-14 16:55:00,
2013-06-14 12:00:00,69.4,59.6,29.31,SSE,166,0.0,0.0,71,0.00,,---,0.00,VWS V12.08,2013-06-14 17:00:00,
2013-06-14 12:05:00,69.3,59.9,29.31,SSE,163,0.0,1.0,72,0.00,,---,0.00,VWS V12.08,2013-06-14 17:05:00,
2013-06-14 12:10:00,69.2,60.2,29.32,SSE,159,0.0,1.0,73,0.00,,---,0.00,VWS V12.08,2013-06-14 17:10:00,
2013-06-14 12:15:00,69.1,60.5,29.33,SSE,168,0.0,1.0,74,0.00,,---,0.00,VWS V12.08,2013-06-14 17:15:00,
2013-06-14 12:20:00,68.9,60.7,29.32,SSE,153,0.0,1.0,75,0.08,,---,0.09,VWS V12.08,2013-06-14 17:20:00,
2013-06-14 12:25:00,67.9,60.4,29.31,SE,143,0.0,1.0,77,0.11,,---,0.12,VWS V12.08,2013-06-14 17:25:00,
2013-06-14 12:30:00,67.3,60.9,29.29,SSW,196,0.0,0.0,80,0.12,,---,0.13,VWS V12.08,2013-06-14 17:30:00,
2013-06-14 12:44:00,66.5,60.8,29.27,SSE,162,0.0,3.0,82,0.13,,---,0.13,VWS V12.08,2013-06-14 17:44:00,
2013-06-14 12:50:00,66.5,60.8,29.27,SSE,160,0.0,3.0,82,0.14,,---,0.14,VWS V12.08,2013-06-14 17:50:00,
2013-06-14 12:56:00,66.6,60.9,29.27,SE,145,0.0,3.0,82,0.14,,---,0.14,VWS V12.08,2013-06-14 17:56:00,
2013-06-14 13:01:00,66.6,60.9,29.27,South,175,0.0,0.0,82,0.14,,---,0.14,VWS V12.08,2013-06-14 18:01:00,
2013-06-14 13:07:00,66.6,60.9,29.25,South,169,0.0,1.0,82,0.15,,---,0.15,VWS V12.08,2013-06-14 18:07:00,
2013-06-14 13:12:00,66.5,60.8,29.24,SSE,160,0.0,2.0,82,0.16,,---,0.16,VWS V12.08,2013-06-14 18:12:00,
2013-06-14 13:17:00,66.4,61.1,29.22,South,189,0.0,2.0,83,0.17,,---,0.17,VWS V12.08,2013-06-14 18:17:00,
2013-06-14 13:22:00,66.5,61.2,29.20,South,185,0.0,2.0,83,0.17,,---,0.17,VWS V12.08,2013-06-14 18:22:00,
2013-06-14 13:27:00,66.7,61.0,29.18,SE,145,0.0,2.0,82,0.17,,---,0.17,VWS V12.08,2013-06-14 18:27:00,
2013-06-14 13:32:00,66.8,61.1,29.13,South,188,0.0,1.0,82,0.05,,---,0.17,VWS V12.08,2013-06-14 18:32:00,
2013-06-14 13:37:00,67.3,60.9,29.12,SW,219,0.0,2.0,80,0.06,,---,0.18,VWS V12.08,2013-06-14 18:37:00,
2013-06-14 13:42:00,68.2,60.7,29.13,SW,217,0.0,2.0,77,0.06,,---,0.18,VWS V12.08,2013-06-14 18:42:00,
2013-06-14 13:47:00,68.7,61.2,29.19,SW,236,0.0,3.0,77,0.06,,---,0.18,VWS V12.08,2013-06-14 18:47:00,
2013-06-14 13:52:00,68.3,61.2,29.24,WNW,286,0.0,3.0,78,0.06,,---,0.18,VWS V12.08,2013-06-14 18:52:00,
2013-06-14 13:57:00,68.6,61.8,29.23,North,350,0.0,3.0,79,0.06,,---,0.18,VWS V12.08,2013-06-14 18:57:00,
2013-06-14 14:02:00,69.1,62.0,29.25,NW,323,0.0,1.0,78,0.04,,---,0.18,VWS V12.08,2013-06-14 19:02:00,
2013-06-14 14:08:00,69.0,61.5,29.24,West,275,0.0,1.0,77,0.04,,---,0.18,VWS V12.08,2013-06-14 19:08:00,
2013-06-14 14:13:00,69.3,61.4,29.23,SSE,162,0.0,1.0,76,0.04,,---,0.18,VWS V12.08,2013-06-14 19:13:00,
2013-06-14 14:18:00,69.5,61.6,29.22,ESE,120,0.0,1.0,76,0.04,,---,0.18,VWS V12.08,2013-06-14 19:18:00,
2013-06-14 14:23:00,69.7,61.8,29.22,SSE,150,0.0,1.0,76,0.04,,---,0.18,VWS V12.08,2013-06-14 19:23:00,
2013-06-14 14:28:00,69.7,61.8,29.22,ESE,110,0.0,1.0,76,0.04,,---,0.18,VWS V12.08,2013-06-14 19:28:00,
2013-06-14 14:33:00,69.8,61.9,29.21,ESE,102,0.0,0.0,76,0.01,,---,0.18,VWS V12.08,2013-06-14 19:33:00,
2013-06-14 14:38:00,69.8,61.9,29.21,South,172,0.0,0.0,76,0.01,,---,0.18,VWS V12.08,2013-06-14 19:38:00,
2013-06-14 14:43:00,70.0,62.5,29.21,ESE,122,0.0,0.0,77,0.01,,---,0.18,VWS V12.08,2013-06-14 19:43:00,
2013-06-14 14:48:00,70.4,62.8,29.24,NE,48,0.0,0.0,77,0.01,,---,0.18,VWS V12.08,2013-06-14 19:48:00,
2013-06-14 14:53:00,71.2,63.6,29.26,North,0,0.0,0.0,77,0.01,,---,0.18,VWS V12.08,2013-06-14 19:53:00,
2013-06-14 14:59:00,71.8,63.5,29.26,North,355,0.0,0.0,75,0.01,,---,0.18,VWS V12.08,2013-06-14 19:59:00,
2013-06-14 15:04:00,72.0,63.3,29.27,North,349,0.0,0.0,74,0.00,,---,0.18,VWS V12.08,2013-06-14 20:04:00,
2013-06-14 15:09:00,72.0,63.3,29.25,North,356,0.0,0.0,74,0.00,,---,0.18,VWS V12.08,2013-06-14 20:09:00,
2013-06-14 15:15:00,71.4,62.7,29.25,NE,43,0.0,0.0,74,0.00,,---,0.18,VWS V12.08,2013-06-14 20:15:00,
2013-06-14 15:21:00,70.8,62.1,29.24,East,90,0.0,0.0,74,0.00,,---,0.18,VWS V12.08,2013-06-14 20:21:00,
2013-06-14 15:27:00,70.5,62.6,29.25,ENE,60,0.0,0.0,76,0.00,,---,0.18,VWS V12.08,2013-06-14 20:27:00,
2013-06-14 15:32:00,70.5,62.6,29.25,ENE,57,0.0,0.0,76,0.00,,---,0.18,VWS V12.08,2013-06-14 20:32:00,
2013-06-14 15:37:00,70.8,62.5,29.25,SE,124,0.0,0.0,75,0.00,,---,0.18,VWS V12.08,2013-06-14 20:37:00,
2013-06-14 15:42:00,71.0,62.7,29.26,NE,39,0.0,0.0,75,0.00,,---,0.18,VWS V12.08,2013-06-14 20:42:00,
2013-06-14 15:47:00,71.2,62.9,29.26,NE,44,0.0,0.0,75,0.00,,---,0.18,VWS V12.08,2013-06-14 20:47:00,
2013-06-14 15:52:00,71.4,62.7,29.26,NE,39,0.0,0.0,74,0.00,,---,0.18,VWS V12.08,2013-06-14 20:52:00,
2013-06-14 15:57:00,71.5,62.8,29.25,NE,42,0.0,0.0,74,0.00,,---,0.18,VWS V12.08,2013-06-14 20:57:00,
2013-06-14 16:02:00,71.9,63.2,29.25,NE,55,0.0,0.0,74,0.00,,---,0.18,VWS V12.08,2013-06-14 21:02:00,
2013-06-14 16:07:00,72.4,63.3,29.25,East,95,0.0,1.0,73,0.00,,---,0.18,VWS V12.08,2013-06-14 21:07:00,
2013-06-14 16:12:00,72.4,62.9,29.25,SSE,160,0.0,1.0,72,0.00,,---,0.18,VWS V12.08,2013-06-14 21:12:00,
2013-06-14 16:17:00,72.3,63.2,29.25,ESE,122,0.0,1.0,73,0.00,,---,0.18,VWS V12.08,2013-06-14 21:17:00,
2013-06-14 16:22:00,72.2,62.7,29.25,SSE,161,0.0,1.0,72,0.00,,---,0.18,VWS V12.08,2013-06-14 21:22:00,
2013-06-14 16:27:00,72.3,62.8,29.25,East,83,0.0,1.0,72,0.00,,---,0.18,VWS V12.08,2013-06-14 21:27:00,
2013-06-14 16:32:00,72.9,63.0,29.25,ESE,103,0.0,0.0,71,0.00,,---,0.18,VWS V12.08,2013-06-14 21:32:00,
2013-06-14 16:37:00,73.0,63.0,29.25,East,83,0.0,1.0,71,0.00,,---,0.18,VWS V12.08,2013-06-14 21:37:00,
2013-06-14 16:42:00,73.0,62.7,29.25,East,88,0.0,1.0,70,0.00,,---,0.18,VWS V12.08,2013-06-14 21:42:00,
2013-06-14 16:47:00,72.6,62.3,29.24,SSE,163,0.0,1.0,70,0.00,,---,0.18,VWS V12.08,2013-06-14 21:47:00,
2013-06-14 16:52:00,72.5,62.2,29.24,SSE,155,0.0,1.0,70,0.00,,---,0.18,VWS V12.08,2013-06-14 21:52:00,
2013-06-14 16:58:00,72.4,62.1,29.24,SSW,199,0.0,1.0,70,0.00,,---,0.18,VWS V12.08,2013-06-14 21:58:00,
2013-06-14 17:03:00,72.4,62.1,29.25,SE,133,0.0,0.0,70,0.00,,---,0.18,VWS V12.08,2013-06-14 22:03:00,
2013-06-14 17:08:00,72.3,61.6,29.26,SSW,197,0.0,0.0,69,0.00,,---,0.18,VWS V12.08,2013-06-14 22:08:00,
2013-06-14 17:13:00,71.9,61.2,29.24,SE,135,0.0,0.0,69,0.00,,---,0.18,VWS V12.08,2013-06-14 22:13:00,
2013-06-14 17:18:00,71.7,61.4,29.24,ESE,120,0.0,0.0,70,0.00,,---,0.18,VWS V12.08,2013-06-14 22:18:00,
2013-06-14 17:23:00,71.5,61.2,29.25,South,179,0.0,0.0,70,0.00,,---,0.18,VWS V12.08,2013-06-14 22:23:00,
2013-06-14 17:28:00,71.3,61.4,29.25,SE,130,0.0,0.0,71,0.00,,---,0.18,VWS V12.08,2013-06-14 22:28:00,
2013-06-14 17:34:00,71.3,61.4,29.27,SE,135,0.0,0.0,71,0.00,,---,0.18,VWS V12.08,2013-06-14 22:34:00,
2013-06-14 17:39:00,71.2,61.7,29.27,SSE,152,0.0,0.0,72,0.00,,---,0.18,VWS V12.08,2013-06-14 22:39:00,
2013-06-14 17:44:00,71.1,61.6,29.27,SSE,167,0.0,0.0,72,0.00,,---,0.18,VWS V12.08,2013-06-14 22:44:00,
2013-06-14 17:49:00,71.0,61.5,29.27,SSE,154,0.0,0.0,72,0.00,,---,0.18,VWS V12.08,2013-06-14 22:49:00,
2013-06-14 17:54:00,71.0,61.9,29.30,NNW,328,0.0,0.0,73,0.00,,---,0.18,VWS V12.08,2013-06-14 22:54:00,
2013-06-14 17:59:00,71.3,62.2,29.30,NW,311,0.0,0.0,73,0.00,,---,0.18,VWS V12.08,2013-06-14 22:59:00,
2013-06-14 18:05:00,71.4,61.9,29.28,WNW,288,0.0,0.0,72,0.00,,---,0.18,VWS V12.08,2013-06-14 23:05:00,
2013-06-14 18:10:00,71.4,62.3,29.28,WNW,288,0.0,0.0,73,0.00,,---,0.18,VWS V12.08,2013-06-14 23:10:00,
2013-06-14 18:16:00,70.9,62.2,29.27,WNW,288,0.0,0.0,74,0.00,,---,0.18,VWS V12.08,2013-06-14 23:16:00,
2013-06-14 18:21:00,70.7,62.4,29.28,WNW,287,0.0,0.0,75,0.00,,---,0.18,VWS V12.08,2013-06-14 23:21:00,
2013-06-14 18:28:00,70.3,62.0,29.27,WNW,287,0.0,0.0,75,0.00,,---,0.18,VWS V12.08,2013-06-14 23:28:00,
2013-06-14 18:34:00,70.2,62.7,29.26,North,9,0.0,0.0,77,0.00,,---,0.18,VWS V12.08,2013-06-14 23:34:00,
2013-06-14 18:39:00,69.9,62.7,29.28,North,5,0.0,0.0,78,0.00,,---,0.18,VWS V12.08,2013-06-14 23:39:00,
2013-06-14 18:45:00,69.8,63.0,29.28,North,5,0.0,0.0,79,0.00,,---,0.18,VWS V12.08,2013-06-14 23:45:00,
2013-06-14 18:50:00,69.7,62.9,29.28,North,4,0.0,0.0,79,0.00,,---,0.18,VWS V12.08,2013-06-14 23:50:00,
2013-06-14 18:55:00,69.5,63.1,29.26,SE,125,0.0,1.0,80,0.01,,---,0.19,VWS V12.08,2013-06-14 23:55:00,
2013-06-14 19:00:00,69.0,62.9,29.26,SSW,212,0.0,0.0,81,0.01,,---,0.19,VWS V12.08,2013-06-15 00:00:00,
2013-06-14 19:05:00,68.8,62.7,29.26,South,170,0.0,0.0,81,0.01,,---,0.19,VWS V12.08,2013-06-15 00:05:00,
2013-06-14 19:10:00,68.6,62.9,29.25,East,97,0.0,0.0,82,0.02,,---,0.20,VWS V12.08,2013-06-15 00:10:00,
2013-06-14 19:15:00,68.3,62.6,29.25,East,99,0.0,0.0,82,0.02,,---,0.21,VWS V12.08,2013-06-15 00:15:00,
2013-06-14 19:20:00,68.0,62.7,29.26,South,176,0.0,0.0,83,0.03,,---,0.21,VWS V12.08,2013-06-15 00:20:00,
2013-06-14 19:26:00,67.9,62.9,29.26,SSE,164,0.0,0.0,84,0.03,,---,0.21,VWS V12.08,2013-06-15 00:26:00,
2013-06-14 19:31:00,67.8,62.8,29.26,South,173,0.0,0.0,84,0.04,,---,0.22,VWS V12.08,2013-06-15 00:31:00,
2013-06-14 19:37:00,67.7,62.7,29.27,SSE,165,0.0,0.0,84,0.04,,---,0.22,VWS V12.08,2013-06-15 00:37:00,
2013-06-14 19:42:00,67.7,63.0,29.28,SSE,157,0.0,0.0,85,0.04,,---,0.22,VWS V12.08,2013-06-15 00:42:00,
2013-06-14 19:47:00,67.5,63.2,29.29,SW,215,0.0,0.0,86,0.05,,---,0.23,VWS V12.08,2013-06-15 00:47:00,
2013-06-14 19:53:00,67.2,62.9,29.26,South,187,0.0,0.0,86,0.06,,---,0.24,VWS V12.08,2013-06-15 00:53:00,
2013-06-14 19:59:00,66.8,62.8,29.24,South,189,0.0,0.0,87,0.07,,---,0.25,VWS V12.08,2013-06-15 00:59:00,
2013-06-14 20:04:00,66.5,62.5,29.23,ESE,120,0.0,1.0,87,0.06,,---,0.25,VWS V12.08,2013-06-15 01:04:00,
2013-06-14 20:09:00,66.5,62.5,29.20,South,177,0.0,1.0,87,0.06,,---,0.25,VWS V12.08,2013-06-15 01:09:00,
2013-06-14 20:14:00,66.5,62.5,29.20,South,185,0.0,1.0,87,0.06,,---,0.25,VWS V12.08,2013-06-15 01:14:00,
2013-06-14 20:19:00,66.5,62.5,29.18,South,191,0.0,1.0,87,0.07,,---,0.26,VWS V12.08,2013-06-15 01:19:00,
2013-06-14 20:24:00,66.4,62.4,29.16,SW,227,0.0,1.0,87,0.07,,---,0.26,VWS V12.08,2013-06-15 01:24:00,
2013-06-14 20:29:00,66.3,62.6,29.15,South,189,0.0,5.0,88,0.07,,---,0.26,VWS V12.08,2013-06-15 01:29:00,
2013-06-14 20:34:00,66.2,62.2,29.13,SSW,201,0.0,2.0,87,0.04,,---,0.26,VWS V12.08,2013-06-15 01:34:00,
2013-06-14 20:39:00,66.1,62.1,29.13,SSW,207,0.0,2.0,87,0.04,,---,0.26,VWS V12.08,2013-06-15 01:39:00,
2013-06-14 20:44:00,66.1,62.1,29.13,SSW,194,0.0,2.0,87,0.04,,---,0.26,VWS V12.08,2013-06-15 01:44:00,
2013-06-14 20:49:00,66.0,62.0,29.12,South,175,0.0,2.0,87,0.05,,---,0.27,VWS V12.08,2013-06-15 01:49:00,
2013-06-14 20:54:00,65.8,61.8,29.11,SSW,208,0.0,2.0,87,0.05,,---,0.27,VWS V12.08,2013-06-15 01:54:00,
2013-06-14 20:59:00,65.8,61.8,29.11,SW,217,1.0,2.0,87,0.05,,---,0.27,VWS V12.08,2013-06-15 01:59:00,
2013-06-14 21:04:00,65.8,61.8,29.11,SW,221,0.0,3.0,87,0.02,,---,0.27,VWS V12.08,2013-06-15 02:04:00,
2013-06-14 21:09:00,65.9,61.6,29.11,SW,221,0.0,3.0,86,0.02,,---,0.27,VWS V12.08,2013-06-15 02:09:00,
2013-06-14 21:14:00,65.9,61.3,29.10,SW,218,0.0,3.0,85,0.02,,---,0.27,VWS V12.08,2013-06-15 02:14:00,
2013-06-14 21:20:00,65.8,61.2,29.10,WSW,241,0.0,3.0,85,0.02,,---,0.27,VWS V12.08,2013-06-15 02:20:00,
2013-06-14 21:25:00,65.7,61.1,29.10,SSW,207,0.0,3.0,85,0.02,,---,0.27,VWS V12.08,2013-06-15 02:25:00,
2013-06-14 21:30:00,65.7,61.1,29.10,WSW,252,1.0,1.0,85,0.02,,---,0.27,VWS V12.08,2013-06-15 02:30:00,
2013-06-14 21:35:00,65.8,61.2,29.10,WSW,237,1.0,2.0,85,0.01,,---,0.27,VWS V12.08,2013-06-15 02:35:00,
2013-06-14 21:40:00,65.9,61.3,29.11,WSW,238,2.0,2.0,85,0.01,,---,0.27,VWS V12.08,2013-06-15 02:40:00,
2013-06-14 21:45:00,66.0,61.4,29.10,SW,222,1.0,2.0,85,0.01,,---,0.27,VWS V12.08,2013-06-15 02:45:00,
2013-06-14 21:50:00,66.1,61.1,29.11,SSW,197,0.0,2.0,84,0.01,,---,0.27,VWS V12.08,2013-06-15 02:50:00,
2013-06-14 21:55:00,66.2,61.2,29.12,SSW,201,0.0,2.0,84,0.01,,---,0.27,VWS V12.08,2013-06-15 02:55:00,
2013-06-14 22:00:00,66.3,61.3,29.12,WSW,256,1.0,1.0,84,0.01,,---,0.27,VWS V12.08,2013-06-15 03:00:00,
2013-06-14 22:05:00,66.4,61.1,29.13,WNW,287,0.0,2.0,83,0.00,,---,0.27,VWS V12.08,2013-06-15 03:05:00,
2013-06-14 22:11:00,66.7,61.0,29.14,West,266,1.0,2.0,82,0.00,,---,0.27,VWS V12.08,2013-06-15 03:11:00,
2013-06-14 22:16:00,66.7,61.0,29.15,SW,235,0.0,2.0,82,0.00,,---,0.27,VWS V12.08,2013-06-15 03:16:00,
2013-06-14 22:21:00,66.9,60.9,29.15,WSW,257,0.0,2.0,81,0.00,,---,0.27,VWS V12.08,2013-06-15 03:21:00,
2013-06-14 22:27:00,67.3,60.9,29.16,WNW,291,0.0,2.0,80,0.00,,---,0.27,VWS V12.08,2013-06-15 03:27:00,
2013-06-14 22:32:00,67.4,61.0,29.16,West,269,0.0,0.0,80,0.00,,---,0.27,VWS V12.08,2013-06-15 03:32:00,
2013-06-14 22:37:00,67.6,60.9,29.17,North,0,0.0,0.0,79,0.00,,---,0.27,VWS V12.08,2013-06-15 03:37:00,
2013-06-14 22:42:00,67.7,61.0,29.16,NE,42,0.0,0.0,79,0.00,,---,0.27,VWS V12.08,2013-06-15 03:42:00,
2013-06-14 22:47:00,67.3,60.9,29.16,ENE,76,0.0,0.0,80,0.00,,---,0.27,VWS V12.08,2013-06-15 03:47:00,
2013-06-14 22:53:00,66.9,60.5,29.14,East,82,0.0,1.0,80,0.00,,---,0.27,VWS V12.08,2013-06-15 03:53:00,
2013-06-14 22:58:00,66.6,60.6,29.15,NE,50,0.0,1.0,81,0.00,,---,0.27,VWS V12.08,2013-06-15 03:58:00,
2013-06-14 23:01:00,66.5,60.8,29.15,East,79,0.0,0.0,82,0.00,,---,0.27,VWS V12.08,2013-06-15 04:01:00,
2013-06-14 23:03:00,66.5,60.8,29.17,ENE,70,0.0,1.0,82,0.00,,---,0.27,VWS V12.08,2013-06-15 04:03:00,
2013-06-14 23:06:00,66.3,60.7,29.17,East,85,0.0,1.0,82,0.00,,---,0.27,VWS V12.08,2013-06-15 04:06:00,
2013-06-14 23:09:00,66.3,60.7,29.16,East,85,0.0,1.0,82,0.00,,---,0.27,VWS V12.08,2013-06-15 04:09:00,
2013-06-14 23:11:00,66.2,60.5,29.16,East,91,0.0,1.0,82,0.00,,---,0.27,VWS V12.08,2013-06-15 04:11:00,
2013-06-14 23:17:00,66.2,60.9,29.18,SSE,154,0.0,1.0,83,0.00,,---,0.27,VWS V12.08,2013-06-15 04:17:00,
2013-06-14 23:22:00,66.2,60.9,29.19,ENE,77,0.0,1.0,83,0.00,,---,0.27,VWS V12.08,2013-06-15 04:22:00,
2013-06-14 23:27:00,66.2,60.9,29.19,ENE,76,0.0,1.0,83,0.00,,---,0.27,VWS V12.08,2013-06-15 04:27:00,
2013-06-14 23:32:00,66.1,60.8,29.20,SSE,150,0.0,1.0,83,0.00,,---,0.27,VWS V12.08,2013-06-15 04:32:00,
2013-06-14 23:37:00,66.1,61.1,29.20,SSE,152,0.0,1.0,84,0.00,,---,0.27,VWS V12.08,2013-06-15 04:37:00,
2013-06-14 23:42:00,66.1,60.8,29.20,ESE,105,0.0,1.0,83,0.00,,---,0.27,VWS V12.08,2013-06-15 04:42:00,
2013-06-14 23:47:00,66.1,60.8,29.21,ESE,122,0.0,1.0,83,0.00,,---,0.27,VWS V12.08,2013-06-15 04:47:00,
2013-06-14 23:52:00,66.1,61.1,29.21,South,181,0.0,1.0,84,0.00,,---,0.27,VWS V12.08,2013-06-15 04:52:00,
2013-06-14 23:57:00,66.1,61.1,29.21,SSW,195,0.0,1.0,84,0.00,,---,0.27,VWS V12.08,2013-06-15 04:57:00,